Location: Seven Kings
(51.5667°N, 0.1000°E)
Time: 02:56:25
(UTC+00:00)

X-37B - Pass Details

Date: 20 June 2021
Orbit: 383 x 392 km, 45.0° (Epoch: 01 July)

Event Time Altitude Azimuth Distance (km) Brightness Sun altitude
Exits shadow 00:28:43 12° 122° (ESE) 1,270 2.9 -14.8°
Drops below altitude 10° 00:29:09 10° 117° (ESE) 1,406 3.2 -14.7°
Sets 00:31:29 0° 101° (ESE) 2,262 4.4 -14.7°
